[[{"header":{"parameterUnit":"m.s-1","parameterCategory":1,"la1":30.2991,"la2":30.254,"lo1":-89.0895,"lo2":-89.0444,"dy":0.0017,"dx":0.0017,"nx":28,"ny":28,"refTime":"2026-01-11T09:00:00:Z","depth":0,"parameterNumber":2,"parameterNumberName":"U-component_of_WINDS"},"data":[0,0,0,0,0,0,0,0,0,0,0,0,0,0,0,0,0,0,0,0,0,0,0,0,0,0,0,0,0,0,0,0,0,0,0,0,0,0,0,0,0,0,0,0,0,0,0,0,0,0,0,0,0,0,0,0,0,0,-0.2078,-0.2079,0,-0.2128,-0.2128,-0.2129,-0.2123,-0.2122,-0.2121,-0.212,-0.2174,-0.2176,-0.2178,0,0,0,0,0,0,0,0,0,0,0,0,0,-0.198,-0.1981,-0.2078,-0.2079,-0.2079,-0.2128,-0.2128,-0.2129,-0.2123,-0.2122,-0.2121,-0.212,-0.2173,-0.2176,-0.2178,0,0,0,0,0,0,0,0,0,0,0,0,0,-0.2025,-0.1982,-0.2078,-0.2082,-0.2083,-0.2128,-0.2128,-0.2129,-0.2123,-0.2122,-0.2121,-0.2119,-0.2172,-0.2175,-0.2179,-0.2223,0,0,-0.2189,-0.219,0,0,0,0,0,0,0,0,-0.2023,-0.2029,-0.2081,-0.2082,-0.2083,-0.2118,-0.2113,-0.2161,-0.2123,-0.2108,-0.212,-0.2119,-0.2156,-0.2161,-0.2173,-0.2226,-0.2228,-0.2189,-0.2191,-0.2192,-0.2193,0,0,0,0,0,0,0,-0.2019,-0.2027,-0.2098,-0.2081,-0.2083,-0.2082,-0.2087,-0.2122,-0.2138,-0.2109,-0.2109,-0.2115,-0.2157,-0.217,-0.2174,-0.2229,-0.2189,-0.2192,-0.2194,-0.2195,-0.2321,-0.2322,0,0,0,0,0,0,-0.2015,-0.2024,-0.2096,-0.2099,-0.2049,-0.2085,-0.209,-0.2108,-0.2138,-0.2141,-0.2116,-0.2114,-0.2165,-0.217,-0.2176,-0.2231,-0.2192,-0.2195,-0.2197,-0.232,-0.2321,-0.2323,0,0,0,0,0,0,-0.2013,-0.2021,-0.2094,-0.2062,-0.2071,-0.2088,-0.2107,-0.2109,-0.2123,-0.2143,-0.2146,-0.2126,-0.2164,-0.2171,-0.2211,-0.2233,-0.2197,-0.22,-0.2318,-0.232,-0.2322,-0.234,0,0,0,0,0,0,-0.201,-0.2021,-0.2038,-0.2062,-0.2072,-0.2128,-0.2108,-0.2111,-0.2128,-0.2126,-0.2153,-0.2157,-0.2164,-0.2207,-0.2215,-0.2236,-0.2202,-0.2316,-0.2319,-0.2322,-0.2338,-0.2343,-0.2347,0,0,0,0,0,-0.2007,-0.2041,-0.2038,-0.2047,-0.2094,-0.213,-0.2136,-0.2142,-0.213,-0.2147,-0.216,-0.2156,-0.2228,-0.2211,-0.222,-0.2243,-0.2315,-0.2318,-0.2321,-0.2336,-0.2342,-0.2347,0,0,0,0,0,0,-0.202,-0.2045,-0.2042,-0.2085,-0.2105,-0.2128,-0.2151,-0.2148,-0.2173,-0.2171,-0.2178,-0.2185,-0.2225,-0.2238,-0.2218,-0.2288,-0.227,-0.2275,-0.2278,-0.2284,-0.2288,-0.2285,-0.2205,0,0,0,0,0,-0.2028,-0.2054,-0.2074,-0.2111,-0.2121,-0.2134,-0.215,-0.2153,-0.2174,-0.2183,-0.2199,-0.2221,-0.2248,-0.2267,-0.2293,-0.2339,-0.2345,-0.2359,-0.2364,-0.2367,-0.2372,-0.2398,-0.2405,-0.2333,-0.2333,-0.2333,0,0,-0.2045,-0.2061,-0.2078,-0.2114,-0.213,-0.2158,-0.2141,-0.2171,-0.2192,-0.2188,-0.2227,-0.2239,-0.2264,-0.2307,-0.2327,-0.2319,-0.2393,-0.2371,-0.2374,-0.2377,-0.2402,-0.2409,-0.2415,-0.2335,-0.2335,-0.2335,0,0,-0.209,-0.2105,-0.2137,-0.2153,-0.2177,-0.2185,-0.2192,-0.2216,-0.2224,-0.2262,-0.226,-0.2285,-0.2332,-0.235,-0.2365,-0.2416,-0.2413,-0.2424,-0.2448,-0.2473,-0.2479,-0.2484,-0.2503,-0.251,-0.2429,-0.2429,-0.2429,0,-0.2108,-0.2149,-0.2154,-0.2184,-0.2201,-0.2196,-0.2229,-0.2245,-0.2277,-0.2288,-0.2278,-0.2337,-0.2354,-0.2401,-0.2413,-0.2425,-0.2435,-0.2422,-0.2477,-0.2483,-0.2487,-0.2506,-0.2513,-0.243,-0.243,-0.243,-0.243,0,-0.2171,-0.22,-0.2223,-0.2253,-0.2271,-0.2303,-0.2313,-0.2331,-0.2332,-0.2341,-0.2381,-0.24,-0.2431,-0.2442,-0.2444,-0.249,-0.2484,-0.2476,-0.2459,-0.2495,-0.2513,-0.252,-0.2432,-0.2431,-0.2431,-0.2431,0,0,-0.2228,-0.2259,-0.2267,-0.2281,-0.2306,-0.2329,-0.236,-0.2389,-0.2405,-0.2426,-0.2453,-0.2493,-0.2485,-0.2502,-0.2506,-0.2528,-0.2567,-0.2517,-0.2517,-0.2526,-0.262,-0.2627,-0.2635,-0.2565,-0.2566,-0.2567,-0.2619,0,-0.2276,-0.2331,-0.2336,-0.2385,-0.2412,-0.2408,-0.2435,-0.2454,-0.2464,-0.2488,-0.2498,-0.2527,-0.2514,-0.2524,-0.2545,-0.2558,-0.2587,-0.2554,-0.2592,-0.2593,-0.2587,-0.2644,-0.2652,-0.27,-0.2625,-0.2626,-0.2627,0,-0.2341,-0.2363,-0.2416,-0.2437,-0.2448,-0.2473,-0.25,-0.2523,-0.2544,-0.2549,-0.2568,-0.2568,-0.2601,-0.2581,-0.2627,-0.2605,-0.262,-0.2628,-0.263,-0.2635,-0.2613,-0.2652,-0.2715,-0.2722,-0.2638,-0.2637,-0.2636,0,-0.2378,-0.2422,-0.2459,-0.247,-0.2496,-0.2513,-0.2525,-0.2545,-0.2562,-0.2585,-0.2596,-0.2623,-0.2638,-0.2659,-0.2667,-0.2652,-0.2713,-0.2694,-0.2719,-0.2719,-0.2734,-0.2733,-0.2801,-0.2741,-0.2741,-0.2741,-0.2741,0,-0.2433,-0.2465,-0.2476,-0.2499,-0.2535,-0.2539,-0.2575,-0.2586,-0.2603,-0.2629,-0.2626,-0.265,-0.2658,-0.2684,-0.269,-0.2727,-0.2734,-0.274,-0.2742,-0.2741,-0.274,-0.2752,-0.275,-0.2743,-0.2742,-0.2742,-0.2742,0,-0.2482,-0.249,-0.253,-0.255,-0.2556,-0.2582,-0.26,-0.2622,-0.263,-0.2662,-0.267,-0.2684,-0.2713,-0.2723,-0.2759,-0.2763,-0.2807,-0.2805,-0.28,-0.28,-0.2826,-0.2824,-0.2905,-0.2916,-0.2848,-0.2848,-0.2849,0,-0.2517,-0.2542,-0.2564,-0.2581,-0.2593,-0.2619,-0.2636,-0.2641,-0.2659,-0.2685,-0.2704,-0.2733,-0.2757,-0.2805,-0.2818,-0.2846,-0.2845,-0.2872,-0.2849,-0.2848,-0.2847,-0.2846,-0.2849,-0.2876,-0.2877,-0.2878,-0.2878,0,-0.2579,-0.2581,-0.2605,-0.2631,-0.2651,-0.2671,-0.2691,-0.2705,-0.2713,-0.2733,-0.2763,-0.2781,-0.2817,-0.2847,-0.2874,-0.2887,-0.2885,-0.2885,-0.2892,-0.2893,-0.2889,-0.2893,-0.2812,-0.2883,-0.2883,-0.2882,-0.2882,-0.2882,-0.2623,-0.2644,-0.2664,-0.2691,-0.2706,-0.2724,-0.2746,-0.2756,-0.2781,-0.2811,-0.2812,-0.2845,-0.2865,-0.2902,-0.2916,-0.2942,-0.2934,-0.2945,-0.2948,-0.2951,-0.2953,-0.2884,-0.2947,-0.2946,-0.2946,-0.2946,-0.2946,0,-0.2685,-0.2697,-0.2722,-0.2749,-0.277,-0.2764,-0.2786,-0.2804,-0.2833,-0.2851,-0.2874,-0.2909,-0.2937,-0.2952,-0.298,-0.2998,-0.2997,-0.3005,-0.3005,-0.3008,-0.2958,-0.2949,-0.3005,-0.3005,-0.3005,-0.3005,-0.3005,-0.3005,-0.2721,-0.2757,-0.2762,-0.2806,-0.2818,-0.2849,-0.2862,-0.2879,-0.2894,-0.2932,-0.2955,-0.2964,-0.2982,-0.3011,-0.3036,-0.304,-0.3051,-0.306,-0.3063,-0.3017,-0.3011,-0.3005,-0.2997,-0.3062,-0.3062,-0.3111,-0.3111,-0.3112]},{"header":{"parameterUnit":"m.s-1","parameterCategory":1,"la1":30.2991,"la2":30.254,"lo1":-89.0895,"lo2":-89.0444,"dy":0.0017,"dx":0.0017,"nx":28,"ny":28,"refTime":"2026-01-11T09:00:00:Z","depth":0,"parameterNumber":3,"parameterNumberName":"V-component_of_WINDS"},"data":[0,0,0,0,0,0,0,0,0,0,0,0,0,0,0,0,0,0,0,0,0,0,0,0,0,0,0,0,0,0,0,0,0,0,0,0,0,0,0,0,0,0,0,0,0,0,0,0,0,0,0,0,0,0,0,0,0,0,-7.1715,-7.1717,0,-7.1883,-7.1885,-7.1887,-7.1836,-7.1832,-7.1829,-7.1825,-7.1994,-7.2001,-7.2009,0,0,0,0,0,0,0,0,0,0,0,0,0,-7.1348,-7.1355,-7.1715,-7.1717,-7.1719,-7.1883,-7.1885,-7.1888,-7.1836,-7.1832,-7.1828,-7.1824,-7.1991,-7.2,-7.201,0,0,0,0,0,0,0,0,0,0,0,0,0,-7.1511,-7.1358,-7.1715,-7.1714,-7.1715,-7.1883,-7.1885,-7.1888,-7.1837,-7.1832,-7.1827,-7.1822,-7.1988,-7.2,-7.2011,-7.2188,0,0,-7.2047,-7.2052,0,0,0,0,0,0,0,0,-7.1502,-7.1525,-7.1712,-7.1714,-7.1716,-7.1833,-7.1818,-7.1989,-7.1839,-7.1791,-7.1825,-7.1819,-7.1944,-7.1959,-7.2002,-7.2196,-7.2203,-7.2048,-7.2055,-7.206,-7.2063,0,0,0,0,0,0,0,-7.1491,-7.1517,-7.1782,-7.1715,-7.1717,-7.1704,-7.1721,-7.185,-7.1895,-7.1795,-7.1791,-7.1812,-7.1945,-7.1991,-7.2006,-7.2206,-7.2047,-7.2058,-7.2065,-7.2069,-7.2556,-7.2562,0,0,0,0,0,0,-7.1478,-7.1508,-7.1776,-7.1787,-7.1594,-7.1715,-7.1734,-7.1801,-7.1894,-7.1903,-7.1816,-7.1809,-7.1974,-7.1992,-7.2012,-7.2227,-7.206,-7.207,-7.2077,-7.255,-7.2557,-7.2564,0,0,0,0,0,0,-7.1471,-7.1503,-7.1769,-7.1647,-7.168,-7.1727,-7.1802,-7.1807,-7.1854,-7.191,-7.1918,-7.1856,-7.197,-7.1995,-7.2146,-7.2232,-7.2076,-7.2086,-7.2543,-7.2552,-7.2561,-7.2659,0,0,0,0,0,0,-7.146,-7.15,-7.1569,-7.1649,-7.1686,-7.1902,-7.1807,-7.1814,-7.1874,-7.1866,-7.1949,-7.1958,-7.1968,-7.2129,-7.2157,-7.2246,-7.2095,-7.2536,-7.2547,-7.2558,-7.2648,-7.267,-7.2689,0,0,0,0,0,-7.1447,-7.1588,-7.1572,-7.1605,-7.1773,-7.1907,-7.1928,-7.1939,-7.1881,-7.1951,-7.1987,-7.1955,-7.2218,-7.2144,-7.2176,-7.2269,-7.253,-7.2544,-7.2557,-7.2639,-7.2666,-7.2689,0,0,0,0,0,0,-7.1515,-7.1599,-7.1582,-7.1753,-7.1824,-7.1898,-7.1985,-7.1966,-7.2053,-7.2042,-7.205,-7.2069,-7.2224,-7.2261,-7.2178,-7.2447,-7.2366,-7.2386,-7.2417,-7.2443,-7.2463,-7.2452,-7.2105,0,0,0,0,0,-7.155,-7.1653,-7.172,-7.1864,-7.1901,-7.1937,-7.1996,-7.1998,-7.2071,-7.21,-7.2147,-7.2218,-7.2317,-7.2382,-7.2475,-7.2653,-7.2671,-7.2733,-7.2753,-7.277,-7.2788,-7.2887,-7.2915,-7.2608,-7.2608,-7.2607,0,0,-7.1624,-7.1682,-7.1746,-7.188,-7.1934,-7.2041,-7.1962,-7.2077,-7.2156,-7.2117,-7.2263,-7.23,-7.238,-7.2546,-7.2621,-7.2581,-7.2877,-7.2787,-7.2799,-7.2809,-7.2903,-7.2932,-7.2958,-7.2617,-7.2615,-7.2614,0,0,-7.1812,-7.1865,-7.1993,-7.205,-7.2135,-7.2159,-7.219,-7.2268,-7.2292,-7.2439,-7.2412,-7.2505,-7.2675,-7.2734,-7.2786,-7.2998,-7.2973,-7.3028,-7.3135,-7.3232,-7.3256,-7.3278,-7.3356,-7.3383,-7.3046,-7.3046,-7.3046,0,-7.1892,-7.2052,-7.2061,-7.2179,-7.224,-7.221,-7.234,-7.2394,-7.2505,-7.2547,-7.2502,-7.2716,-7.2767,-7.2947,-7.3,-7.3042,-7.3078,-7.302,-7.3252,-7.3274,-7.3294,-7.3368,-7.3397,-7.3052,-7.3052,-7.3051,-7.305,0,-7.2147,-7.2258,-7.2351,-7.2461,-7.2531,-7.2655,-7.2682,-7.2752,-7.2749,-7.2777,-7.2928,-7.2989,-7.3096,-7.3138,-7.3134,-7.3318,-7.3292,-7.3249,-7.3168,-7.333,-7.34,-7.3428,-7.3062,-7.3059,-7.3057,-7.3056,0,0,-7.2382,-7.2498,-7.2532,-7.2582,-7.2675,-7.2761,-7.2883,-7.2989,-7.305,-7.3127,-7.3231,-7.3376,-7.3338,-7.3397,-7.34,-7.3484,-7.3652,-7.3431,-7.3433,-7.3472,-7.3861,-7.3894,-7.3927,-7.3635,-7.364,-7.3645,-7.3855,0,-7.258,-7.2797,-7.2809,-7.3006,-7.311,-7.3084,-7.3191,-7.3259,-7.3289,-7.3381,-7.3413,-7.3517,-7.3458,-7.3494,-7.3576,-7.3614,-7.373,-7.3599,-7.3732,-7.3736,-7.3715,-7.3963,-7.3998,-7.4193,-7.3882,-7.3887,-7.389,0,-7.2839,-7.2928,-7.3135,-7.3215,-7.3259,-7.3355,-7.3455,-7.3543,-7.362,-7.3636,-7.3703,-7.3695,-7.382,-7.3734,-7.3907,-7.3818,-7.3872,-7.3899,-7.3907,-7.3921,-7.3824,-7.3986,-7.4255,-7.4286,-7.3933,-7.3929,-7.3926,0,-7.2993,-7.3163,-7.331,-7.3354,-7.345,-7.3519,-7.3562,-7.3634,-7.3698,-7.3784,-7.3826,-7.3925,-7.398,-7.4057,-7.4075,-7.401,-7.4249,-7.4164,-7.4267,-7.4267,-7.4319,-7.4316,-7.4604,-7.4352,-7.4351,-7.4351,-7.435,0,-7.3214,-7.3342,-7.3381,-7.3472,-7.3615,-7.3628,-7.377,-7.3808,-7.3873,-7.397,-7.3953,-7.4045,-7.4063,-7.4158,-7.4173,-7.4316,-7.434,-7.4357,-7.4359,-7.436,-7.4358,-7.4397,-7.4385,-7.4359,-7.4357,-7.4355,-7.4354,0,-7.341,-7.3441,-7.36,-7.3679,-7.3702,-7.3805,-7.3872,-7.3959,-7.3987,-7.4111,-7.4141,-7.4185,-7.4297,-7.4323,-7.4455,-7.4465,-7.4635,-7.4623,-7.461,-7.461,-7.4712,-7.4703,-7.5037,-7.5082,-7.4798,-7.4801,-7.4803,0,-7.355,-7.3649,-7.3739,-7.3804,-7.3851,-7.3956,-7.4022,-7.4038,-7.4107,-7.4204,-7.428,-7.439,-7.4479,-7.4658,-7.4702,-7.4803,-7.4795,-7.4905,-7.481,-7.4808,-7.48,-7.4795,-7.4806,-7.4924,-7.4927,-7.4929,-7.4931,0,-7.3795,-7.3806,-7.3903,-7.4006,-7.4086,-7.4167,-7.4244,-7.4298,-7.4325,-7.4404,-7.4519,-7.4588,-7.4725,-7.4835,-7.4937,-7.498,-7.4962,-7.4961,-7.4991,-7.4993,-7.4982,-7.4992,-7.4662,-7.4953,-7.4951,-7.495,-7.4948,-7.4948,-7.3969,-7.4057,-7.4135,-7.4244,-7.4304,-7.4378,-7.4464,-7.4505,-7.4601,-7.4715,-7.4718,-7.4845,-7.492,-7.5056,-7.5106,-7.5204,-7.517,-7.5213,-7.5224,-7.5235,-7.5245,-7.4965,-7.5223,-7.5222,-7.5221,-7.5221,-7.522,0,-7.4216,-7.4265,-7.4365,-7.4476,-7.4561,-7.4537,-7.4622,-7.4695,-7.4807,-7.488,-7.4969,-7.5102,-7.5209,-7.5262,-7.5368,-7.5437,-7.5431,-7.5464,-7.546,-7.5471,-7.5268,-7.5233,-7.5468,-7.5468,-7.5468,-7.5467,-7.5467,-7.5467,-7.4354,-7.4502,-7.4523,-7.4701,-7.4749,-7.4875,-7.4925,-7.4993,-7.5052,-7.5202,-7.5292,-7.5326,-7.5392,-7.5503,-7.56,-7.5613,-7.5653,-7.5692,-7.57,-7.551,-7.5485,-7.5461,-7.5428,-7.57,-7.57,-7.5896,-7.5897,-7.5899]}]]